Location: Unspecified
(44.0704°N, 88.6889°W)
Time: 10:25:33
(UTC+01:00)

Cosmos 2058 - Visible Passes

Search period start: 25 March 2019 00:00
Search period end: 04 April 2019 01:00
Orbit: 564 x 583 km, 82.5° (Epoch: 24 March)

Date Brightness Start Highest point End Pass type
(mag) Time Alt. Az. Time Alt. Az. Time Alt. Az.
26 Mar 6.1 05:05:19 10° N 05:05:19 10° N 05:05:19 10° N visible
27 Mar 6.1 05:08:22 10° N 05:08:34 11° N 05:08:34 11° N visible
28 Mar 6.0 05:11:29 10° NNW 05:11:50 12° NNW 05:11:50 12° NNW visible
29 Mar 5.5 03:38:45 10° NNE 03:38:53 10° NNE 03:38:53 10° NNE visible
29 Mar 6.0 05:14:37 10° NNW 05:15:06 13° NNW 05:15:06 13° NNW visible
30 Mar 5.3 03:41:24 10° NNE 03:42:10 13° NNE 03:42:10 13° NNE visible
30 Mar 6.0 05:17:50 10° NNW 05:18:23 13° NNW 05:18:23 13° NNW visible
31 Mar 5.1 04:44:10 10° NNE 04:45:28 17° NNE 04:45:28 17° NNE visible
31 Mar 6.0 06:21:06 10° NNW 06:21:41 13° NW 06:21:41 13° NW visible
01 Apr 4.8 04:47:01 10° N 04:48:48 21° NNE 04:48:48 21° NNE visible
01 Apr 6.0 06:24:29 10° NW 06:25:01 12° NW 06:25:01 12° NW visible
02 Apr 4.5 04:49:55 10° N 04:52:08 27° NNE 04:52:08 27° NNE visible
02 Apr 6.1 06:28:01 10° NW 06:28:21 11° NW 06:28:21 11° NW visible
03 Apr 4.1 04:52:53 10° N 04:55:30 35° NNE 04:55:30 35° NNE visible
